When you browse on this site, cookies collect data to enhance your experience and personalize the content and advertising you see.
Visit our Privacy Policy to learn more. By continuing to use the site, you agree to this use of cookies and data.
  • In Austria
  • List of Countries
  • For 7 days
  • Water Temperature
  • Weather Map
  • News
  • Weather Widgets
  • user-avatar
    Login

    Hourly Weather Albena

    Today, 24 October, Thursday

    Time Temperature Precipitation Wind Pressure Humidity
    00:00 +14°C° 0 mm 1 mps 751 mmHg 84%
    01:00 +14°C° 0 mm 1 mps 751 mmHg 84%
    02:00 +13°C° 0 mm 1 mps 750 mmHg 84%
    03:00 +13°C° 0 mm 1 mps 750 mmHg 83%
    04:00 +13°C° 0 mm 1 mps 750 mmHg 83%
    05:00 +13°C° 0 mm 1 mps 750 mmHg 83%
    06:00 +14°C° 0 mm 1 mps 750 mmHg 79%
    07:00 +14°C° 0 mm 1 mps 750 mmHg 75%
    08:00 +15°C° 0 mm 1 mps 750 mmHg 71%
    09:00 +18°C° 0 mm 1 mps 750 mmHg 64%
    10:00 +19°C° 0 mm 1 mps 750 mmHg 57%
    11:00 +20°C° 0 mm 2 mps 750 mmHg 50%
    12:00 +21°C° 0 mm 2 mps 750 mmHg 49%
    13:00 +21°C° 0 mm 2 mps 750 mmHg 48%
    14:00 +21°C° 0 mm 2 mps 749 mmHg 47%
    15:00 +20°C° 0 mm 2 mps 749 mmHg 54%
    16:00 +19°C° 0 mm 2 mps 748 mmHg 61%
    17:00 +18°C° 0 mm 1 mps 748 mmHg 68%
    18:00 +16°C° 0 mm 1 mps 748 mmHg 72%
    19:00 +16°C° 0 mm 1 mps 748 mmHg 76%
    20:00 +15°C° 0 mm 2 mps 749 mmHg 80%
    21:00 +14°C° 0 mm 1 mps 749 mmHg 82%
    22:00 +14°C° 0 mm 1 mps 748 mmHg 83%
    23:00 +14°C° 0 mm 1 mps 748 mmHg 85%

    Tomorrow, 25 October, Friday

    Time Temperature Precipitation Wind Pressure Humidity
    00:00 +14°C° 0 mm 1 mps 748 mmHg 85%
    01:00 +12°C° 0 mm 0 mps 748 mmHg 85%
    02:00 +12°C° 0 mm 0 mps 748 mmHg 85%
    03:00 +12°C° 0 mm 0 mps 748 mmHg 85%
    04:00 +13°C° 0 mm 1 mps 748 mmHg 84%
    05:00 +13°C° 0 mm 1 mps 748 mmHg 83%
    06:00 +13°C° 0 mm 1 mps 748 mmHg 80%
    07:00 +14°C° 0 mm 1 mps 748 mmHg 78%
    08:00 +15°C° 0 mm 1 mps 749 mmHg 75%
    09:00 +18°C° 0 mm 1 mps 749 mmHg 67%
    10:00 +19°C° 0 mm 1 mps 749 mmHg 60%
    11:00 +20°C° 0 mm 2 mps 749 mmHg 52%
    12:00 +21°C° 0 mm 2 mps 749 mmHg 50%
    13:00 +21°C° 0 mm 2 mps 749 mmHg 47%
    14:00 +23°C° 0 mm 2 mps 749 mmHg 44%
    15:00 +20°C° 0 mm 2 mps 749 mmHg 51%
    16:00 +19°C° 0 mm 2 mps 749 mmHg 57%
    17:00 +17°C° 0 mm 2 mps 748 mmHg 64%
    18:00 +18°C° 0 mm 1 mps 749 mmHg 67%
    19:00 +16°C° 0 mm 1 mps 749 mmHg 71%
    20:00 +15°C° 0 mm 1 mps 749 mmHg 75%
    21:00 +15°C° 0 mm 1 mps 750 mmHg 76%
    22:00 +13°C° 0 mm 0 mps 750 mmHg 77%
    23:00 +13°C° 0 mm 0 mps 750 mmHg 78%

    Day after tomorrow, 26 October, Saturday

    Time Temperature Precipitation Wind Pressure Humidity
    00:00 +13°C° 0 mm 0 mps 750 mmHg 77%
    01:00 +14°C° 0 mm 1 mps 750 mmHg 76%
    02:00 +13°C° 0 mm 1 mps 750 mmHg 76%
    03:00 +13°C° 0 mm 1 mps 750 mmHg 74%
    04:00 +13°C° 0 mm 1 mps 750 mmHg 73%
    05:00 +13°C° 0 mm 1 mps 751 mmHg 72%
    06:00 +14°C° 0 mm 1 mps 751 mmHg 69%
    07:00 +14°C° 0 mm 1 mps 751 mmHg 66%
    08:00 +15°C° 0 mm 2 mps 752 mmHg 62%
    09:00 +18°C° 0 mm 1 mps 752 mmHg 55%
    10:00 +20°C° 0 mm 1 mps 752 mmHg 47%
    11:00 +22°C° 0 mm 1 mps 752 mmHg 39%
    12:00 +23°C° 0 mm 1 mps 752 mmHg 37%
    13:00 +23°C° 0 mm 1 mps 752 mmHg 35%
    14:00 +24°C° 0 mm 1 mps 751 mmHg 33%
    15:00 +23°C° 0 mm 1 mps 751 mmHg 39%
    16:00 +21°C° 0 mm 1 mps 751 mmHg 45%
    17:00 +19°C° 0 mm 1 mps 751 mmHg 52%
    18:00 +18°C° 0 mm 1 mps 751 mmHg 55%
    19:00 +16°C° 0 mm 0 mps 751 mmHg 58%
    20:00 +15°C° 0 mm 0 mps 751 mmHg 62%
    21:00 +14°C° 0 mm 0 mps 751 mmHg 62%
    22:00 +15°C° 0 mm 1 mps 751 mmHg 63%
    23:00 +15°C° 0 mm 1 mps 751 mmHg 63%

    27 October, Sunday

    Time Temperature Precipitation Wind Pressure Humidity
    00:00 +15°C° 0 mm 1 mps 751 mmHg 63%
    01:00 +14°C° 0 mm 1 mps 751 mmHg 62%
    02:00 +14°C° 0 mm 1 mps 751 mmHg 62%
    03:00 +14°C° 0 mm 1 mps 751 mmHg 62%
    04:00 +14°C° 0 mm 1 mps 751 mmHg 63%
    05:00 +14°C° 0 mm 1 mps 751 mmHg 63%
    06:00 +14°C° 0 mm 1 mps 751 mmHg 61%
    07:00 +15°C° 0 mm 1 mps 751 mmHg 59%
    08:00 +15°C° 0 mm 1 mps 751 mmHg 58%
    09:00 +18°C° 0 mm 1 mps 751 mmHg 52%
    10:00 +20°C° 0 mm 1 mps 751 mmHg 46%
    11:00 +20°C° 0 mm 0 mps 751 mmHg 41%
    12:00 +23°C° 0 mm 1 mps 751 mmHg 40%
    13:00 +23°C° 0 mm 1 mps 750 mmHg 39%
    14:00 +23°C° 0 mm 1 mps 750 mmHg 38%
    15:00 +21°C° 0 mm 2 mps 749 mmHg 45%
    16:00 +19°C° 0 mm 2 mps 749 mmHg 52%
    17:00 +18°C° 0 mm 2 mps 749 mmHg 58%
    18:00 +17°C° 0 mm 2 mps 749 mmHg 61%
    19:00 +16°C° 0 mm 2 mps 749 mmHg 64%
    20:00 +15°C° 0 mm 1 mps 749 mmHg 67%
    21:00 +15°C° 0 mm 2 mps 749 mmHg 69%
    22:00 +15°C° 0 mm 2 mps 748 mmHg 70%
    23:00 +14°C° 0 mm 2 mps 748 mmHg 71%

    28 October, Monday

    Time Temperature Precipitation Wind Pressure Humidity
    00:00 +14°C° 0 mm 2 mps 748 mmHg 72%
    01:00 +14°C° 0 mm 1 mps 748 mmHg 74%
    02:00 +13°C° 0 mm 1 mps 748 mmHg 75%
    03:00 +13°C° 0 mm 1 mps 747 mmHg 75%
    04:00 +13°C° 0 mm 1 mps 747 mmHg 75%
    05:00 +13°C° 0 mm 1 mps 747 mmHg 75%
    06:00 +13°C° 0 mm 1 mps 747 mmHg 73%
    07:00 +14°C° 0 mm 1 mps 747 mmHg 70%
    08:00 +15°C° 0 mm 1 mps 746 mmHg 68%
    09:00 +16°C° 0 mm 2 mps 746 mmHg 61%
    10:00 +18°C° 0 mm 2 mps 746 mmHg 53%
    11:00 +20°C° 0 mm 2 mps 746 mmHg 46%
    12:00 +20°C° 0 mm 3 mps 746 mmHg 47%
    13:00 +21°C° 0 mm 3 mps 746 mmHg 48%
    14:00 +21°C° 0 mm 3 mps 745 mmHg 49%
    15:00 +19°C° 0 mm 3 mps 745 mmHg 56%
    16:00 +18°C° 0 mm 2 mps 745 mmHg 64%
    17:00 +16°C° 0 mm 2 mps 744 mmHg 71%
    18:00 +16°C° 0 mm 2 mps 744 mmHg 76%
    19:00 +15°C° 0 mm 2 mps 744 mmHg 80%
    20:00 +14°C° 0 mm 2 mps 745 mmHg 85%
    21:00 +14°C° 0 mm 2 mps 745 mmHg 86%
    22:00 +14°C° 0 mm 2 mps 745 mmHg 87%
    23:00 +14°C° 0 mm 1 mps 745 mmHg 88%

    29 October, Tuesday

    Time Temperature Precipitation Wind Pressure Humidity
    00:00 +13°C° 0 mm 1 mps 745 mmHg 88%
    01:00 +13°C° 0 mm 1 mps 745 mmHg 89%
    02:00 +13°C° 0 mm 1 mps 744 mmHg 89%
    03:00 +13°C° 0 mm 1 mps 744 mmHg 89%
    04:00 +13°C° 0 mm 1 mps 744 mmHg 89%
    05:00 +12°C° 0 mm 1 mps 744 mmHg 89%
    06:00 +13°C° 0 mm 1 mps 744 mmHg 87%
    07:00 +13°C° 0 mm 1 mps 744 mmHg 85%
    08:00 +14°C° 0 mm 1 mps 745 mmHg 84%
    09:00 +16°C° 0 mm 1 mps 745 mmHg 76%
    10:00 +18°C° 0 mm 1 mps 745 mmHg 68%
    11:00 +20°C° 0 mm 1 mps 745 mmHg 60%
    12:00 +20°C° 0 mm 1 mps 745 mmHg 56%
    13:00 +21°C° 0 mm 1 mps 745 mmHg 52%
    14:00 +21°C° 0 mm 2 mps 744 mmHg 48%
    15:00 +19°C° 0 mm 2 mps 744 mmHg 55%
    16:00 +18°C° 0 mm 2 mps 744 mmHg 62%
    17:00 +17°C° 0 mm 2 mps 744 mmHg 69%
    18:00 +16°C° 0 mm 2 mps 744 mmHg 72%
    19:00 +15°C° 0 mm 2 mps 744 mmHg 74%
    20:00 +15°C° 0 mm 1 mps 744 mmHg 77%
    21:00 +15°C° 0 mm 1 mps 744 mmHg 77%
    22:00 +14°C° 0 mm 1 mps 744 mmHg 77%
    23:00 +14°C° 0 mm 1 mps 745 mmHg 77%
    Show more